No;Time;Interval(mi);Indoor Humidity(%);Indoor Temperature(�C);Outdoor Humidity(%);Outdoor Temperature(�C);Absolute Pressure(Hpa);Wind(m/s);Gust(m/s);Direction;Relative Pressure(Hpa);Dewpoint(�C);Windchill(�C);Total Rainfall(mm)
1;2013-09-01 00:05:00;10;57;22.8;69;15.4;1023.0;0.3;0.7;W;1026.2;9.7;15.4;292.2;
2;2013-09-01 00:15:00;10;57;22.8;70;15.1;1023.0;0.0;0.7;SW;1026.2;9.7;15.1;292.2;
3;2013-09-01 00:25:00;10;58;22.9;70;15.0;1023.1;0.3;0.7;SW;1026.3;9.6;15.0;292.2;
4;2013-09-01 00:35:00;10;58;22.9;71;14.8;1023.1;0.3;1.0;WSW;1026.3;9.6;14.8;292.2;
5;2013-09-01 00:45:00;10;58;22.9;71;14.7;1023.0;0.3;0.7;S;1026.2;9.5;14.7;292.2;
6;2013-09-01 00:55:00;10;58;22.9;70;14.5;1023.1;0.0;0.3;NE;1026.3;9.1;14.5;292.2;
7;2013-09-01 01:05:00;10;58;22.9;70;14.3;1022.9;0.0;0.7;W;1026.1;8.9;14.3;292.2;
8;2013-09-01 01:15:00;10;58;22.9;68;14.2;1023.0;1.0;2.0;NE;1026.2;8.4;14.2;292.2;
9;2013-09-01 01:25:00;10;58;22.9;68;14.0;1023.1;0.0;0.3;N;1026.3;8.2;14.0;292.2;
10;2013-09-01 01:35:00;10;59;22.9;69;13.9;1023.2;0.0;0.3;N;1026.4;8.3;13.9;292.2;
11;2013-09-01 01:45:00;10;59;22.9;69;13.7;1023.2;0.7;1.4;SW;1026.4;8.1;13.7;292.2;
12;2013-09-01 01:55:00;10;59;22.9;69;13.6;1023.1;0.0;0.0;W;1026.3;8.0;13.6;292.2;
13;2013-09-01 02:05:00;10;59;22.9;70;13.5;1023.1;0.0;0.0;W;1026.3;8.1;13.5;292.2;
14;2013-09-01 02:15:00;10;59;22.9;71;13.3;1023.3;0.0;0.0;W;1026.5;8.2;13.3;292.2;
15;2013-09-01 02:25:00;10;59;22.9;71;13.2;1023.3;0.3;0.7;W;1026.5;8.1;13.2;292.2;
16;2013-09-01 02:35:00;10;59;22.9;71;13.0;1023.3;0.0;0.0;SW;1026.5;7.9;13.0;292.2;
17;2013-09-01 02:45:00;10;59;22.9;72;12.6;1023.4;0.0;0.0;N;1026.6;7.7;12.6;292.2;
18;2013-09-01 02:55:00;10;58;22.9;72;12.4;1023.3;0.0;0.0;SW;1026.5;7.5;12.4;292.2;
19;2013-09-01 03:05:00;10;58;22.8;72;12.3;1023.2;0.0;0.3;NE;1026.4;7.4;12.3;292.2;
20;2013-09-01 03:15:00;10;58;22.8;72;12.4;1023.4;0.0;0.3;SW;1026.6;7.5;12.4;292.2;
21;2013-09-01 03:25:00;10;58;22.8;72;12.4;1023.6;0.0;0.7;SE;1026.8;7.5;12.4;292.2;
22;2013-09-01 03:35:00;10;58;22.8;72;12.1;1023.6;0.0;0.3;W;1026.8;7.2;12.1;292.2;
23;2013-09-01 03:45:00;10;58;22.8;74;11.9;1023.6;0.0;0.0;W;1026.8;7.4;11.9;292.2;
24;2013-09-01 03:55:00;10;58;22.8;76;11.7;1023.7;0.0;0.3;N;1026.9;7.6;11.7;292.2;
25;2013-09-01 04:05:00;10;58;22.7;76;11.8;1023.8;0.0;0.0;W;1027.0;7.7;11.8;292.2;
26;2013-09-01 04:15:00;10;57;22.7;77;11.7;1023.8;0.0;0.0;W;1027.0;7.8;11.7;292.8;
27;2013-09-01 04:25:00;10;57;22.7;78;11.6;1023.8;0.0;0.0;NW;1027.0;7.9;11.6;292.8;
28;2013-09-01 04:35:00;10;57;22.7;79;11.5;1023.8;0.0;0.0;W;1027.0;8.0;11.5;292.8;
29;2013-09-01 04:45:00;10;57;22.7;79;11.5;1023.9;0.0;0.3;W;1027.1;8.0;11.5;292.8;
30;2013-09-01 04:55:00;10;57;22.6;79;11.5;1024.0;0.0;0.0;NE;1027.2;8.0;11.5;292.8;
31;2013-09-01 05:05:00;10;57;22.6;80;11.5;1023.8;0.0;0.3;N;1027.0;8.2;11.5;292.8;
32;2013-09-01 05:15:00;10;57;22.6;80;11.4;1023.9;0.0;0.0;SW;1027.1;8.1;11.4;292.8;
33;2013-09-01 05:25:00;10;57;22.6;80;11.3;1024.1;0.0;0.0;W;1027.3;8.0;11.3;292.8;
34;2013-09-01 05:35:00;10;57;22.6;81;11.3;1024.3;0.0;0.0;SW;1027.5;8.2;11.3;292.8;
35;2013-09-01 05:45:00;10;57;22.6;82;11.3;1024.4;0.0;0.0;S;1027.6;8.3;11.3;292.8;
36;2013-09-01 05:55:00;10;57;22.6;81;11.4;1024.5;0.0;0.3;W;1027.7;8.3;11.4;292.8;
37;2013-09-01 06:05:00;10;56;22.6;81;11.6;1024.7;0.0;0.0;E;1027.9;8.5;11.6;292.8;
38;2013-09-01 06:15:00;10;56;22.6;79;12.1;1024.6;0.0;0.0;NW;1027.8;8.6;12.1;292.8;
39;2013-09-01 06:25:00;10;56;22.6;78;12.3;1024.7;0.0;0.3;NW;1027.9;8.6;12.3;292.8;
40;2013-09-01 06:35:00;10;56;22.6;77;13.3;1024.9;0.0;0.0;NE;1028.1;9.4;13.3;292.8;
41;2013-09-01 06:45:00;10;56;22.6;69;15.1;1024.8;0.3;1.0;ESE;1028.0;9.5;15.1;292.8;
42;2013-09-01 06:55:00;10;56;22.6;67;15.5;1024.8;0.0;0.3;NE;1028.0;9.4;15.5;292.8;
43;2013-09-01 07:05:00;10;56;22.6;65;15.3;1024.8;0.0;0.3;S;1028.0;8.8;15.3;292.8;
44;2013-09-01 07:15:00;10;56;22.6;64;16.4;1025.2;0.3;0.7;SE;1028.4;9.6;16.4;292.8;
45;2013-09-01 07:25:00;10;56;22.7;62;16.9;1025.3;0.3;0.7;S;1028.5;9.6;16.9;292.8;
46;2013-09-01 07:35:00;10;56;22.7;59;17.4;1025.3;0.0;0.3;S;1028.5;9.3;17.4;292.8;
47;2013-09-01 07:45:00;10;56;22.7;56;17.0;1025.4;0.0;0.0;E;1028.6;8.2;17.0;292.8;
48;2013-09-01 07:55:00;10;56;22.7;57;16.8;1025.5;0.0;0.7;S;1028.7;8.2;16.8;292.8;
49;2013-09-01 08:05:00;10;56;22.7;57;17.3;1025.5;0.3;0.7;SE;1028.7;8.7;17.3;292.8;
50;2013-09-01 08:15:00;10;56;22.7;52;17.6;1025.5;0.3;1.0;NE;1028.7;7.6;17.6;292.8;
51;2013-09-01 08:25:00;10;56;22.8;51;18.2;1025.4;0.7;1.4;E;1028.6;7.9;18.2;292.8;
52;2013-09-01 08:35:00;10;56;22.8;50;18.5;1025.6;0.0;0.7;SE;1028.8;7.9;18.5;292.8;
53;2013-09-01 08:45:00;10;56;22.8;49;18.4;1025.7;0.7;1.4;SE;1028.9;7.5;18.4;292.8;
54;2013-09-01 08:55:00;10;56;22.8;50;18.7;1025.7;0.3;1.0;SE;1028.9;8.1;18.7;292.8;
55;2013-09-01 09:05:00;10;56;22.8;48;19.1;1025.7;1.0;1.7;NE;1028.9;7.8;19.1;292.8;
56;2013-09-01 09:15:00;10;56;22.8;47;19.6;1025.7;0.3;1.0;SE;1028.9;8.0;19.6;292.8;
57;2013-09-01 09:25:00;10;55;22.8;44;20.5;1025.7;0.7;1.7;ESE;1028.9;7.8;20.5;292.8;
58;2013-09-01 09:35:00;10;53;22.8;43;21.5;1025.8;0.7;1.0;SW;1029.0;8.4;21.5;292.8;
59;2013-09-01 09:45:00;10;52;22.6;41;22.0;1025.6;0.3;1.0;S;1028.8;8.1;22.0;292.8;
60;2013-09-01 09:55:00;10;51;22.5;37;22.8;1025.7;1.4;3.1;NW;1028.9;7.3;22.8;292.8;
61;2013-09-01 10:05:01;10;51;22.4;39;22.6;1025.7;1.0;2.4;S;1028.9;7.9;22.6;292.8;
62;2013-09-01 10:15:01;10;49;22.3;38;23.8;1025.5;0.7;1.4;N;1028.7;8.6;23.8;292.8;
63;2013-09-01 10:25:01;10;49;22.3;36;24.2;1025.6;1.0;1.7;S;1028.8;8.2;24.2;292.8;
64;2013-09-01 10:35:01;10;48;22.2;36;24.0;1025.5;1.0;2.0;W;1028.7;8.0;24.0;292.8;
65;2013-09-01 10:45:01;10;48;22.2;38;23.5;1025.4;0.0;0.3;SW;1028.6;8.4;23.5;292.8;
66;2013-09-01 10:55:01;10;48;22.1;37;24.0;1025.2;0.0;0.7;SE;1028.4;8.4;24.0;292.8;
67;2013-09-01 11:05:01;10;48;22.1;35;24.5;1025.2;0.3;0.7;S;1028.4;8.0;24.5;292.8;
68;2013-09-01 11:15:01;10;48;22.1;36;24.7;1025.0;0.7;1.4;W;1028.2;8.6;24.7;292.8;
69;2013-09-01 11:25:01;10;48;22.1;39;23.3;1024.9;0.3;1.0;N;1028.1;8.6;23.3;292.8;
70;2013-09-01 11:35:01;10;47;22.1;36;24.5;1025.1;0.0;0.3;SE;1028.3;8.4;24.5;292.8;
71;2013-09-01 11:45:01;10;47;22.1;35;25.3;1025.1;0.3;1.4;NW;1028.3;8.7;25.3;292.8;
72;2013-09-01 11:55:01;10;47;22.1;34;25.3;1025.2;0.0;0.7;N;1028.4;8.3;25.3;292.8;
73;2013-09-01 12:05:01;10;47;22.1;34;25.0;1025.3;0.7;1.4;NW;1028.5;8.0;25.0;292.8;
74;2013-09-01 12:15:01;10;47;22.2;35;25.0;1025.2;0.3;1.0;S;1028.4;8.5;25.0;292.8;
75;2013-09-01 12:25:01;10;47;22.2;36;25.2;1025.1;0.0;0.3;W;1028.3;9.1;25.2;292.8;
76;2013-09-01 12:35:01;10;47;22.2;34;25.5;1025.1;0.3;1.0;SW;1028.3;8.5;25.5;292.8;
77;2013-09-01 12:45:01;10;47;22.3;36;25.2;1024.9;0.3;1.7;NW;1028.1;9.1;25.2;292.8;
78;2013-09-01 12:55:01;10;47;22.3;35;24.9;1024.8;0.3;1.0;S;1028.0;8.4;24.9;292.8;
79;2013-09-01 13:05:01;10;47;22.3;37;24.6;1024.6;0.7;1.0;S;1027.8;8.9;24.6;292.8;
80;2013-09-01 13:15:01;10;47;22.3;37;24.8;1024.6;1.0;2.4;S;1027.8;9.1;24.8;292.8;
81;2013-09-01 13:25:01;10;47;22.3;37;24.7;1024.5;1.0;1.4;S;1027.7;9.0;24.7;292.8;
82;2013-09-01 13:35:01;10;47;22.3;34;25.1;1024.4;0.3;0.7;NW;1027.6;8.1;25.1;292.8;
83;2013-09-01 13:45:01;10;46;22.3;35;25.6;1024.3;0.7;1.4;SE;1027.5;9.0;25.6;292.8;
84;2013-09-01 13:55:01;10;46;22.3;33;26.5;1024.6;0.0;0.7;NE;1027.8;8.9;26.5;292.8;
85;2013-09-01 14:05:01;10;46;22.3;32;26.8;1024.6;0.0;0.3;N;1027.8;8.7;26.8;292.8;
86;2013-09-01 14:15:01;10;46;22.3;33;26.0;1024.4;0.3;1.0;SE;1027.6;8.5;26.0;292.8;
87;2013-09-01 14:25:01;10;46;22.3;32;26.0;1024.5;0.7;1.7;SE;1027.7;8.0;26.0;292.8;
88;2013-09-01 14:35:01;10;46;22.3;34;25.5;1024.4;0.7;1.4;SE;1027.6;8.5;25.5;292.8;
89;2013-09-01 14:45:01;10;46;22.3;33;27.0;1024.4;0.0;0.7;SW;1027.6;9.3;27.0;292.8;
90;2013-09-01 14:55:01;10;46;22.3;31;27.4;1024.4;0.7;1.4;S;1027.6;8.8;27.4;292.8;
91;2013-09-01 15:05:01;10;47;22.3;31;27.6;1024.5;0.3;0.7;SW;1027.7;8.9;27.6;292.8;
92;2013-09-01 15:15:01;10;47;22.3;32;26.5;1024.3;0.3;1.4;SW;1027.5;8.5;26.5;292.8;
93;2013-09-01 15:25:01;10;47;22.3;34;25.8;1024.1;0.3;0.7;SE;1027.3;8.7;25.8;292.8;
94;2013-09-01 15:35:01;10;47;22.4;34;25.8;1024.2;0.7;1.4;NE;1027.4;8.7;25.8;292.8;
95;2013-09-01 15:45:01;10;48;22.4;35;25.1;1024.3;0.3;1.0;W;1027.5;8.6;25.1;292.8;
96;2013-09-01 15:55:01;10;48;22.5;40;23.1;1024.2;2.7;5.1;N;1027.4;8.8;23.1;292.8;
97;2013-09-01 16:05:01;10;48;22.5;41;22.5;1024.0;0.7;1.4;SW;1027.2;8.6;22.5;292.8;
98;2013-09-01 16:15:01;10;49;22.6;41;22.0;1024.1;1.0;1.7;S;1027.3;8.1;22.0;292.8;
99;2013-09-01 16:25:01;10;49;22.6;41;22.1;1024.1;0.0;0.0;N;1027.3;8.2;22.1;292.8;
100;2013-09-01 16:35:01;10;51;22.6;41;22.0;1024.1;1.0;1.7;W;1027.3;8.1;22.0;292.8;
101;2013-09-01 16:45:01;10;49;22.7;42;21.7;1024.4;0.3;1.7;SW;1027.6;8.2;21.7;292.8;
102;2013-09-01 16:55:01;10;49;22.7;40;21.8;1024.2;0.7;1.0;S;1027.4;7.6;21.8;292.8;
103;2013-09-01 17:05:01;10;49;22.7;40;21.6;1024.2;0.3;1.0;SE;1027.4;7.4;21.6;292.8;
104;2013-09-01 17:15:01;10;49;22.7;42;21.3;1024.0;0.0;0.3;NW;1027.2;7.9;21.3;292.8;
105;2013-09-01 17:25:01;10;51;22.7;42;21.0;1023.9;0.3;1.0;W;1027.1;7.6;21.0;292.8;
106;2013-09-01 17:35:01;10;49;22.7;44;20.7;1023.9;0.0;0.7;S;1027.1;8.0;20.7;292.8;
107;2013-09-01 17:45:01;10;49;22.7;43;20.3;1023.9;0.3;0.7;W;1027.1;7.3;20.3;292.8;
108;2013-09-01 17:55:01;10;49;22.7;44;20.2;1024.0;0.0;0.7;S;1027.2;7.6;20.2;292.8;
109;2013-09-01 18:05:01;10;51;22.7;44;20.0;1024.0;0.3;0.7;S;1027.2;7.4;20.0;292.8;
110;2013-09-01 18:15:01;10;49;22.8;45;19.5;1024.0;0.0;0.3;N;1027.2;7.2;19.5;292.8;
111;2013-09-01 18:25:01;10;48;22.7;46;19.2;1024.0;0.0;0.3;SW;1027.2;7.3;19.2;292.8;
112;2013-09-01 18:35:01;10;48;22.7;48;18.8;1024.0;0.0;0.3;SW;1027.2;7.6;18.8;292.8;
113;2013-09-01 18:45:01;10;49;22.7;49;18.5;1024.1;0.0;0.0;W;1027.3;7.6;18.5;292.8;
114;2013-09-01 18:55:01;10;49;22.7;50;18.2;1024.2;0.0;0.3;E;1027.4;7.6;18.2;292.8;
115;2013-09-01 19:05:01;10;51;22.7;51;18.0;1024.4;0.0;0.3;E;1027.6;7.7;18.0;292.8;
116;2013-09-01 19:15:01;10;49;22.7;53;17.8;1024.4;0.0;0.0;SW;1027.6;8.1;17.8;292.8;
117;2013-09-01 19:25:01;10;49;22.7;54;17.5;1024.4;0.0;0.0;SW;1027.6;8.1;17.5;292.8;
118;2013-09-01 19:35:01;10;51;22.8;54;17.3;1024.5;0.0;0.0;W;1027.7;7.9;17.3;292.8;
119;2013-09-01 19:45:01;10;50;22.8;55;17.2;1024.5;0.0;0.0;W;1027.7;8.1;17.2;292.8;
120;2013-09-01 19:55:01;10;50;22.8;56;17.1;1024.6;0.0;0.0;W;1027.8;8.2;17.1;292.8;
121;2013-09-01 20:05:01;10;51;22.8;57;17.0;1024.5;0.0;0.0;W;1027.7;8.4;17.0;292.8;
122;2013-09-01 20:15:01;10;50;22.8;60;16.8;1024.5;0.0;0.0;W;1027.7;9.0;16.8;292.8;
123;2013-09-01 20:25:01;10;51;22.9;61;16.5;1024.5;0.0;0.0;W;1027.7;9.0;16.5;292.8;
124;2013-09-01 20:35:01;10;51;22.9;62;16.3;1024.4;0.0;0.0;W;1027.6;9.0;16.3;292.8;
125;2013-09-01 20:45:01;10;51;22.9;63;16.2;1024.5;0.0;0.0;W;1027.7;9.1;16.2;292.8;
126;2013-09-01 20:55:01;10;51;22.9;63;16.2;1024.5;0.0;0.0;W;1027.7;9.1;16.2;292.8;
127;2013-09-01 21:05:01;10;51;22.9;63;16.2;1024.5;0.0;0.0;SW;1027.7;9.1;16.2;292.8;
128;2013-09-01 21:15:01;10;51;22.9;62;16.4;1024.5;0.0;0.0;W;1027.7;9.1;16.4;293.1;
129;2013-09-01 21:25:01;10;51;22.9;62;16.5;1024.6;0.0;0.0;NW;1027.8;9.2;16.5;293.1;
130;2013-09-01 21:35:01;10;51;22.9;63;16.6;1024.4;0.0;0.0;NW;1027.6;9.5;16.6;293.1;
131;2013-09-01 21:45:01;10;51;22.9;62;16.6;1024.4;0.0;0.7;NW;1027.6;9.3;16.6;293.1;
132;2013-09-01 21:55:01;10;51;22.8;62;16.6;1024.4;0.0;0.0;SW;1027.6;9.3;16.6;293.1;
133;2013-09-01 22:05:01;10;51;22.8;62;16.5;1024.4;0.0;0.0;SW;1027.6;9.2;16.5;293.1;
134;2013-09-01 22:15:01;10;51;22.8;63;16.4;1024.4;0.0;0.0;W;1027.6;9.3;16.4;293.1;
135;2013-09-01 22:25:01;10;51;22.8;63;16.3;1024.3;0.0;0.0;W;1027.5;9.2;16.3;293.1;
136;2013-09-01 22:35:01;10;51;22.8;64;16.0;1024.3;0.0;0.0;SW;1027.5;9.2;16.0;293.1;
137;2013-09-01 22:45:01;10;51;22.8;66;15.8;1024.4;0.0;0.0;SW;1027.6;9.5;15.8;293.1;
138;2013-09-01 22:55:01;10;51;22.8;66;15.5;1024.5;0.0;0.7;SW;1027.7;9.2;15.5;293.1;
139;2013-09-01 23:05:01;10;51;22.8;65;15.5;1024.4;0.0;0.0;NE;1027.6;8.9;15.5;293.1;
140;2013-09-01 23:15:01;10;51;22.8;64;15.5;1024.3;0.0;0.0;SW;1027.5;8.7;15.5;293.1;
141;2013-09-01 23:25:01;10;51;22.8;65;15.4;1024.5;0.0;0.3;W;1027.7;8.9;15.4;293.1;
142;2013-09-01 23:35:01;10;51;22.7;65;15.3;1024.5;0.0;0.0;W;1027.7;8.8;15.3;293.1;
143;2013-09-01 23:45:01;10;51;22.7;66;15.1;1024.5;0.0;0.0;SW;1027.7;8.8;15.1;293.1;
144;2013-09-01 23:55:01;10;51;22.7;66;15.0;1024.5;0.0;0.0;SW;1027.7;8.7;15.0;293.1;
145;2013-09-02 00:05:01;10;51;22.7;66;15.0;1024.6;0.0;0.0;SW;1027.8;8.7;15.0;293.1;
146;2013-09-02 00:15:01;10;51;22.7;69;14.8;1024.5;0.0;0.0;W;1027.7;9.2;14.8;293.1;
147;2013-09-02 00:25:01;10;51;22.7;69;14.7;1024.5;0.0;0.3;NW;1027.7;9.1;14.7;293.1;
148;2013-09-02 00:35:01;10;51;22.7;70;14.5;1024.5;0.0;0.0;W;1027.7;9.1;14.5;293.1;
149;2013-09-02 00:45:01;10;51;22.7;71;14.2;1024.6;0.0;0.3;NW;1027.8;9.0;14.2;293.1;
150;2013-09-02 00:55:01;10;51;22.6;72;14.3;1024.5;0.0;0.3;N;1027.7;9.3;14.3;293.1;
151;2013-09-02 01:05:01;10;51;22.6;71;14.5;1024.3;0.0;0.3;N;1027.5;9.3;14.5;293.1;
152;2013-09-02 01:15:01;10;51;22.6;71;14.5;1024.2;0.0;0.0;W;1027.4;9.3;14.5;293.1;
153;2013-09-02 01:25:01;10;51;22.6;72;14.3;1024.2;0.0;0.0;NW;1027.4;9.3;14.3;293.1;
154;2013-09-02 01:35:01;10;51;22.6;73;14.0;1024.2;0.0;0.0;SW;1027.4;9.2;14.0;293.1;
155;2013-09-02 01:45:01;10;51;22.6;75;13.8;1024.1;0.0;0.0;NW;1027.3;9.4;13.8;293.1;
156;2013-09-02 01:55:01;10;51;22.6;75;13.5;1024.0;0.0;0.0;NW;1027.2;9.2;13.5;293.1;
157;2013-09-02 02:05:01;10;51;22.6;75;13.5;1023.9;0.0;0.0;NW;1027.1;9.2;13.5;293.1;
158;2013-09-02 02:15:01;10;51;22.6;77;13.1;1024.0;0.0;0.0;NW;1027.2;9.2;13.1;293.1;
159;2013-09-02 02:25:01;10;51;22.6;78;12.8;1023.8;0.0;0.0;NW;1027.0;9.1;12.8;293.1;
160;2013-09-02 02:35:01;10;51;22.5;79;12.7;1023.7;0.0;0.0;W;1026.9;9.2;12.7;293.1;
161;2013-09-02 02:45:01;10;51;22.5;80;12.7;1023.7;0.0;0.0;W;1026.9;9.3;12.7;293.1;
162;2013-09-02 02:55:01;10;51;22.5;81;12.4;1023.6;0.0;0.0;W;1026.8;9.2;12.4;293.1;
163;2013-09-02 03:05:01;10;51;22.5;81;12.2;1023.6;0.0;0.0;W;1026.8;9.0;12.2;293.1;
164;2013-09-02 03:15:01;10;51;22.5;82;12.1;1023.6;0.0;0.0;W;1026.8;9.1;12.1;293.1;
165;2013-09-02 03:25:01;10;51;22.5;83;12.1;1023.5;0.0;0.0;W;1026.7;9.3;12.1;293.1;
166;2013-09-02 03:35:01;10;51;22.5;83;12.0;1023.4;0.0;0.0;W;1026.6;9.2;12.0;293.1;
167;2013-09-02 03:45:01;10;51;22.5;84;12.0;1023.4;0.0;0.0;W;1026.6;9.4;12.0;293.1;
168;2013-09-02 03:55:01;10;51;22.5;84;12.0;1023.4;0.0;0.0;W;1026.6;9.4;12.0;293.1;
169;2013-09-02 04:05:01;10;51;22.4;84;12.2;1023.3;0.0;0.0;W;1026.5;9.6;12.2;293.1;
170;2013-09-02 04:15:01;10;51;22.4;83;12.5;1023.3;0.0;0.0;W;1026.5;9.7;12.5;293.1;
171;2013-09-02 04:25:01;10;51;22.4;83;12.6;1023.4;0.0;0.0;W;1026.6;9.8;12.6;293.1;
172;2013-09-02 04:35:01;10;51;22.4;83;12.7;1023.2;0.0;0.0;W;1026.4;9.9;12.7;293.1;
173;2013-09-02 04:45:01;10;51;22.4;83;12.7;1023.0;0.0;0.0;W;1026.2;9.9;12.7;293.1;
174;2013-09-02 04:55:01;10;51;22.4;83;12.6;1023.3;0.0;0.0;W;1026.5;9.8;12.6;293.1;
175;2013-09-02 05:05:01;10;51;22.4;83;12.3;1023.3;0.0;0.0;W;1026.5;9.5;12.3;293.1;
176;2013-09-02 05:15:01;10;51;22.4;84;12.3;1023.3;0.0;0.0;W;1026.5;9.7;12.3;293.1;
177;2013-09-02 05:25:01;10;51;22.4;84;12.3;1023.3;0.0;0.0;W;1026.5;9.7;12.3;293.1;
178;2013-09-02 05:35:01;10;52;22.4;84;12.1;1023.4;0.0;0.0;W;1026.6;9.5;12.1;293.1;
179;2013-09-02 05:45:01;10;51;22.3;85;12.3;1023.4;0.0;0.0;W;1026.6;9.9;12.3;293.1;
180;2013-09-02 05:55:01;10;51;22.2;85;12.4;1023.3;0.0;0.0;W;1026.5;9.9;12.4;293.1;
181;2013-09-02 06:05:01;10;52;22.2;85;12.4;1023.3;0.0;0.0;W;1026.5;9.9;12.4;293.1;
182;2013-09-02 06:15:01;10;52;22.2;85;12.6;1023.5;0.0;0.0;W;1026.7;10.1;12.6;293.1;
183;2013-09-02 06:25:01;10;52;22.2;86;12.6;1023.5;0.0;0.0;W;1026.7;10.3;12.6;293.1;
184;2013-09-02 06:35:01;10;52;22.3;87;14.2;1023.5;0.0;0.0;W;1026.7;12.1;14.2;293.1;
185;2013-09-02 06:45:01;10;52;22.3;81;17.5;1023.6;0.0;0.0;W;1026.8;14.2;17.5;293.1;
186;2013-09-02 06:55:01;10;52;22.3;73;17.7;1023.7;0.0;0.0;W;1026.9;12.8;17.7;293.1;
187;2013-09-02 07:05:01;10;52;22.2;74;17.3;1023.7;0.0;0.0;W;1026.9;12.6;17.3;293.1;
188;2013-09-02 07:15:01;10;52;22.4;74;18.2;1023.7;0.0;0.0;NW;1026.9;13.5;18.2;293.1;
189;2013-09-02 07:25:01;10;52;22.4;74;18.1;1023.8;0.0;0.7;SW;1027.0;13.4;18.1;293.1;
190;2013-09-02 07:35:01;10;52;22.4;75;18.5;1023.8;0.0;0.7;NW;1027.0;14.0;18.5;293.1;
191;2013-09-02 07:45:01;10;52;22.3;75;18.6;1023.9;0.0;0.3;NW;1027.1;14.1;18.6;293.1;
192;2013-09-02 07:55:01;10;52;22.4;74;18.9;1023.9;0.0;0.3;NE;1027.1;14.2;18.9;293.1;
193;2013-09-02 08:05:01;10;52;22.5;73;19.1;1023.9;0.0;0.3;S;1027.1;14.1;19.1;293.1;
194;2013-09-02 08:15:01;10;53;22.5;72;19.8;1024.1;0.3;0.7;NW;1027.3;14.6;19.8;293.1;
195;2013-09-02 08:25:01;10;53;22.5;69;20.1;1024.1;0.0;0.3;E;1027.3;14.2;20.1;293.1;
196;2013-09-02 08:35:01;10;53;22.6;68;20.2;1024.2;0.0;0.7;NW;1027.4;14.1;20.2;293.1;
197;2013-09-02 08:45:01;10;53;22.6;67;20.8;1024.3;0.0;0.3;NE;1027.5;14.4;20.8;293.1;
198;2013-09-02 08:55:01;10;53;22.6;64;21.1;1024.4;0.0;0.7;S;1027.6;14.0;21.1;293.1;
199;2013-09-02 09:05:01;10;53;22.6;63;22.0;1024.5;0.0;0.3;NE;1027.7;14.6;22.0;293.1;
200;2013-09-02 09:15:01;10;53;22.6;60;22.8;1024.5;0.3;1.4;S;1027.7;14.6;22.8;293.1;
201;2013-09-02 09:25:01;10;53;22.7;55;23.4;1024.4;0.0;0.7;NW;1027.6;13.8;23.4;293.1;
202;2013-09-02 09:35:01;10;53;22.7;50;24.5;1024.4;0.0;0.7;S;1027.6;13.4;24.5;293.1;
203;2013-09-02 09:45:01;10;53;22.7;48;25.9;1024.4;0.3;1.0;N;1027.6;14.0;25.9;293.1;
204;2013-09-02 09:55:00;10;53;22.7;45;26.5;1024.4;0.0;0.7;SE;1027.6;13.6;26.5;293.1;
205;2013-09-02 10:05:00;10;53;22.7;45;26.6;1024.3;0.0;0.7;NE;1027.5;13.7;26.6;293.1;
206;2013-09-02 10:15:01;10;53;22.8;42;27.1;1024.2;0.0;0.3;S;1027.4;13.1;27.1;293.1;
207;2013-09-02 10:25:01;10;53;22.8;41;27.6;1024.1;0.3;0.7;N;1027.3;13.1;27.6;293.1;
208;2013-09-02 10:35:01;10;53;22.8;40;28.4;1023.9;0.0;0.7;SW;1027.1;13.5;28.4;293.1;
209;2013-09-02 10:45:01;10;53;22.8;41;28.9;1023.8;0.7;1.4;S;1027.0;14.3;28.9;293.1;
210;2013-09-02 10:55:01;10;53;22.8;38;29.2;1023.8;0.0;0.7;S;1027.0;13.4;29.2;293.1;
211;2013-09-02 11:05:01;10;53;22.8;36;29.4;1023.7;0.7;1.7;NE;1026.9;12.8;29.4;293.1;
212;2013-09-02 11:15:01;10;53;22.8;35;29.4;1023.6;0.3;1.0;E;1026.8;12.3;29.4;293.1;
213;2013-09-02 11:25:01;10;53;22.9;37;28.0;1023.6;0.3;0.7;NW;1026.8;11.9;28.0;293.1;
214;2013-09-02 11:35:01;10;53;22.9;36;28.4;1023.5;0.3;1.0;SE;1026.7;11.9;28.4;293.1;
215;2013-09-02 11:45:01;10;53;22.9;37;28.5;1023.5;0.0;0.7;S;1026.7;12.4;28.5;293.1;
216;2013-09-02 11:55:01;10;53;22.9;36;28.5;1023.5;0.7;1.4;S;1026.7;12.0;28.5;293.1;
217;2013-09-02 12:05:01;10;53;22.9;36;28.4;1023.4;1.0;1.7;NW;1026.6;11.9;28.4;293.1;
218;2013-09-02 12:15:01;10;53;22.9;37;28.5;1023.3;0.0;0.7;W;1026.5;12.4;28.5;293.1;
219;2013-09-02 12:25:01;10;53;22.9;37;28.5;1023.2;0.3;1.4;W;1026.4;12.4;28.5;293.1;
220;2013-09-02 12:35:01;10;53;22.9;35;29.0;1023.2;0.3;0.3;W;1026.4;12.0;29.0;293.1;
221;2013-09-02 12:45:01;10;54;23.0;34;29.9;1023.2;0.7;1.0;NE;1026.4;12.3;29.9;293.1;
222;2013-09-02 12:55:01;10;54;23.0;33;30.1;1023.0;0.0;0.7;N;1026.2;12.0;30.1;293.1;
223;2013-09-02 13:05:01;10;54;23.0;34;29.6;1022.9;0.7;1.0;E;1026.1;12.1;29.6;293.1;
224;2013-09-02 13:15:01;10;54;23.0;34;30.0;1023.0;0.0;0.7;N;1026.2;12.4;30.0;293.1;
225;2013-09-02 13:25:01;10;54;23.0;33;30.7;1022.8;0.0;0.7;SW;1026.0;12.6;30.7;293.1;
226;2013-09-02 13:35:01;10;54;23.0;31;30.7;1022.7;0.0;0.3;SE;1025.9;11.6;30.7;293.1;
227;2013-09-02 13:45:01;10;54;23.0;32;31.1;1022.6;0.7;1.7;W;1025.8;12.4;31.1;293.1;
228;2013-09-02 13:55:01;10;54;23.0;32;31.0;1022.5;0.0;0.7;NE;1025.7;12.4;31.0;293.1;
229;2013-09-02 14:05:01;10;54;23.0;33;31.1;1022.5;0.0;0.3;N;1025.7;12.9;31.1;293.1;
230;2013-09-02 14:15:01;10;54;23.0;31;32.0;1022.3;0.0;0.3;N;1025.5;12.7;32.0;293.1;
231;2013-09-02 14:25:01;10;54;23.0;28;32.0;1022.3;0.3;0.7;SE;1025.5;11.2;32.0;293.1;
232;2013-09-02 14:35:01;10;54;23.0;31;31.2;1022.2;0.3;0.7;N;1025.4;12.0;31.2;293.1;
233;2013-09-02 14:45:01;10;54;23.0;31;31.1;1022.1;0.0;0.3;SE;1025.3;12.0;31.1;293.1;
234;2013-09-02 14:55:01;10;54;23.0;31;31.1;1022.1;0.3;0.7;SW;1025.3;12.0;31.1;293.1;
235;2013-09-02 15:05:01;10;54;23.0;32;31.5;1022.0;0.3;1.0;E;1025.2;12.8;31.5;293.1;
236;2013-09-02 15:15:01;10;54;23.1;32;31.2;1022.0;0.7;1.0;SW;1025.2;12.5;31.2;293.1;
237;2013-09-02 15:25:01;10;54;23.1;34;30.6;1022.0;0.0;0.3;N;1025.2;12.9;30.6;293.1;
238;2013-09-02 15:35:01;10;54;23.1;32;31.3;1022.1;0.0;0.7;S;1025.3;12.6;31.3;293.1;
239;2013-09-02 15:45:01;10;54;23.1;35;29.4;1021.9;0.0;0.7;NW;1025.1;12.3;29.4;293.1;
240;2013-09-02 15:55:01;10;54;23.1;39;26.6;1021.9;0.3;0.7;NW;1025.1;11.5;26.6;293.1;
241;2013-09-02 16:05:01;10;54;22.9;40;26.1;1022.0;0.3;0.7;S;1025.2;11.4;26.1;293.1;
242;2013-09-02 16:15:01;10;54;23.1;43;25.2;1021.9;0.0;0.3;E;1025.1;11.7;25.2;293.1;
243;2013-09-02 16:25:01;10;54;23.1;45;24.7;1021.9;0.0;0.3;SE;1025.1;12.0;24.7;293.1;
244;2013-09-02 16:35:01;10;53;23.1;45;24.3;1021.9;0.3;1.0;S;1025.1;11.6;24.3;293.1;
245;2013-09-02 16:45:01;10;53;23.1;47;23.9;1021.8;0.0;0.3;N;1025.0;11.9;23.9;293.1;
246;2013-09-02 16:55:01;10;53;23.1;48;23.6;1021.8;0.0;0.3;S;1025.0;11.9;23.6;293.1;
247;2013-09-02 17:05:01;10;53;23.1;48;23.5;1021.9;0.3;0.7;N;1025.1;11.8;23.5;293.1;
248;2013-09-02 17:15:01;10;53;23.1;48;23.2;1021.9;0.0;0.7;NW;1025.1;11.6;23.2;293.1;
249;2013-09-02 17:25:01;10;53;23.1;48;23.1;1021.9;0.3;0.7;W;1025.1;11.5;23.1;293.1;
250;2013-09-02 17:35:01;10;53;23.1;49;22.9;1022.0;0.0;0.7;NW;1025.2;11.6;22.9;293.1;
251;2013-09-02 17:45:01;10;53;23.1;51;22.8;1021.9;0.0;0.3;S;1025.1;12.1;22.8;293.1;
252;2013-09-02 17:55:01;10;53;23.1;52;22.5;1022.0;0.3;0.7;S;1025.2;12.1;22.5;293.1;
253;2013-09-02 18:05:01;10;54;23.1;52;22.5;1022.0;0.0;0.3;SW;1025.2;12.1;22.5;293.1;
254;2013-09-02 18:15:01;10;54;23.1;53;22.0;1022.2;0.0;0.7;N;1025.4;12.0;22.0;293.1;
255;2013-09-02 18:25:01;10;54;23.1;55;21.7;1022.2;0.7;1.4;SE;1025.4;12.3;21.7;293.1;
256;2013-09-02 18:35:01;10;53;23.1;56;21.3;1022.3;0.0;0.0;SW;1025.5;12.2;21.3;293.1;
257;2013-09-02 18:45:01;10;53;23.0;57;20.9;1022.4;0.0;0.0;N;1025.6;12.1;20.9;293.1;
258;2013-09-02 18:55:01;10;54;23.1;58;20.5;1022.4;0.0;0.0;W;1025.6;11.9;20.5;293.1;
259;2013-09-02 19:05:01;10;54;23.1;59;20.2;1022.6;0.0;0.0;W;1025.8;11.9;20.2;293.1;
260;2013-09-02 19:15:01;10;55;23.1;61;19.9;1022.6;0.0;0.0;SW;1025.8;12.2;19.9;293.1;
261;2013-09-02 19:25:01;10;55;23.2;63;19.5;1022.7;0.0;0.0;SW;1025.9;12.3;19.5;293.1;
262;2013-09-02 19:35:01;10;55;23.2;64;19.2;1022.8;0.0;0.3;W;1026.0;12.2;19.2;293.1;
263;2013-09-02 19:45:01;10;55;23.2;64;19.4;1022.9;0.0;0.0;S;1026.1;12.4;19.4;293.1;
264;2013-09-02 19:55:01;10;55;23.2;64;19.4;1022.9;0.0;0.0;S;1026.1;12.4;19.4;293.1;
265;2013-09-02 20:05:01;10;55;23.2;64;19.3;1023.1;0.0;0.3;W;1026.3;12.3;19.3;293.1;
266;2013-09-02 20:15:01;10;55;23.2;66;18.8;1023.1;0.0;0.0;SW;1026.3;12.3;18.8;293.1;
267;2013-09-02 20:25:01;10;55;23.2;67;18.6;1023.2;0.0;0.0;W;1026.4;12.3;18.6;293.1;
268;2013-09-02 20:35:01;10;55;23.2;67;18.3;1023.1;0.0;0.0;W;1026.3;12.1;18.3;293.1;
269;2013-09-02 20:45:01;10;55;23.1;68;18.0;1023.3;0.0;0.0;W;1026.5;12.0;18.0;293.1;
270;2013-09-02 20:55:01;10;55;23.1;70;17.8;1023.2;0.0;0.0;W;1026.4;12.3;17.8;293.1;
271;2013-09-02 21:05:01;10;55;23.1;69;18.0;1023.2;0.0;0.0;W;1026.4;12.2;18.0;293.1;
272;2013-09-02 21:15:01;10;55;23.1;71;17.6;1023.3;0.0;0.0;W;1026.5;12.3;17.6;293.1;
273;2013-09-02 21:25:01;10;55;23.1;72;17.7;1023.2;0.0;0.0;W;1026.4;12.6;17.7;293.7;
274;2013-09-02 21:35:01;10;55;23.1;72;17.7;1023.3;0.0;0.0;N;1026.5;12.6;17.7;293.7;
275;2013-09-02 21:45:01;10;55;23.1;72;17.6;1023.4;0.0;0.0;W;1026.6;12.5;17.6;293.7;
276;2013-09-02 21:55:01;10;55;23.1;73;17.1;1023.5;0.0;0.0;S;1026.7;12.2;17.1;293.7;
277;2013-09-02 22:05:01;10;55;23.0;73;17.0;1023.4;0.0;0.0;NW;1026.6;12.1;17.0;293.7;
278;2013-09-02 22:15:01;10;55;23.0;75;16.8;1023.5;0.0;0.0;W;1026.7;12.3;16.8;293.7;
279;2013-09-02 22:25:01;10;55;23.0;75;16.8;1023.4;0.3;0.7;SW;1026.6;12.3;16.8;293.7;
280;2013-09-02 22:35:01;10;55;23.0;74;17.0;1023.4;0.0;0.0;W;1026.6;12.3;17.0;293.7;
281;2013-09-02 22:45:01;10;55;23.0;75;16.9;1023.3;0.0;0.0;W;1026.5;12.4;16.9;293.7;
282;2013-09-02 22:55:01;10;55;23.0;75;16.7;1023.2;0.0;0.0;NW;1026.4;12.2;16.7;293.7;
283;2013-09-02 23:05:01;10;55;23.0;76;16.6;1023.3;0.0;0.0;NW;1026.5;12.3;16.6;293.7;
284;2013-09-02 23:15:01;10;55;23.0;77;16.3;1023.2;0.0;0.3;S;1026.4;12.3;16.3;293.7;